Location: *
(55.5817°S, 142.4781°W)
Time: 08:18:12
(UTC+00:00)

Cosmos 2100 Rocket - Pass Details

Date: 29 April 2025
Orbit: 956 x 999 km, 82.9° (Epoch: 18 May)

Event Time Altitude Azimuth Distance (km) Brightness Sun altitude
Exits shadow 13:01:07 60° 58° (ENE) 1,112 4.3 -32.3°
Maximum altitude 13:01:42 63° 85° (E) 1,086 4.3 -32.2°
Drops below altitude 10° 13:07:52 10° 164° (SSE) 2,733 6.7 -31.4°
Sets 13:10:24 0° 167° (SSE) 3,682 7.4 -31.1°
